Location: Absher
(46.5583°N, 107.9840°W)
Time: 06:28:36
(UTC+00:00)

STRAND 1 - Pass Details

Date: 01 April 2023
Orbit: 767 x 779 km, 98.4° (Epoch: 03 June)

Event Time Altitude Azimuth Distance (km) Brightness Sun altitude
Rises 03:29:44 0° 2° (N) 3,252 ? -18.8°
Reaches altitude 10° 03:32:33 10° 346° (NNW) 2,319 ? -19.2°
Maximum altitude 03:36:14 21° 300° (WNW) 1,696 ? -19.7°
Drops below altitude 10° 03:39:55 10° 253° (WSW) 2,307 ? -20.3°
Sets 03:42:44 0° 237° (WSW) 3,229 ? -20.7°
